Daviess Cnty AP, Washington,, IN

9:29 PM EDT on October 19, 2019 (GMT -0400)
Daviess County

Weather History for KDCY - June, 2019

Change the Weather History Date:

Friday, June 14, 2019

  Actual Average (WUND) Record (WUND)
Temperature  
Mean Temperature 62 °F -  
Max Temperature 77 °F - - (-1)
Min Temperature 46 °F - - (-1)
Degree Days  
Heating Degree Days 4    
Growing Degree Days 12 (Base 50)    
Moisture  
Dew Point 47 °F    
Average Humidity 62    
Maximum Humidity 99    
Minimum Humidity 32    
Precipitation  
Precipitation 0.00 in - - ()
Sea Level Pressure  
Sea Level Pressure 30.10 in    
Wind  
Wind Speed 4 mph (South)    
Max Wind Speed 16 mph    
Max Gust Speed 20 mph    
Visibility 10 miles    
Events Rain    
Averages and records for this station are not official NWS values.
T = Trace of Precipitation, MM = Missing Value Source: NWS Daily Summary

Daily Weather History Graph

Daily Weather History Graph

Search for Another Location

Airport or City:

Astronomy

Jun. 14, 2019 Rise Set
Actual Time 6:23 AM EDT 9:14 PM EDT
Civil Twilight 5:51 AM EDT 9:46 PM EDT
Nautical Twilight 5:11 AM EDT 10:26 PM EDT
Astronomical Twilight 4:25 AM EDT 11:12 PM EDT
Moon 6:37 PM EDT (6/14) 4:38 AM EDT (6/14)
Length of Visible Light 15h 55m
Length of Day
14h 51m
Waxing Gibbous, 92% of the Moon is Illuminated
Jun 14
Waxing Gibbous
Jun 17
Full
Jun 25
Last Quarter
Jul 2
New
Jul 9
First Quarter

Hourly Weather History & Observations

Time (EDT) Temp. Dew Point Humidity Pressure Visibility Wind Dir Wind Speed Gust Speed Precip Events Conditions
12:15 AM 50.7 °F 46.9 °F 87% 30.10 in 10.0 mi Calm Calm - N/A   Clear
12:35 AM 51.1 °F 47.7 °F 88% 30.10 in 10.0 mi Calm Calm - N/A   Clear
12:55 AM 51.1 °F 46.9 °F 86% 30.10 in 10.0 mi Calm Calm - N/A   Clear
1:15 AM 50.2 °F 47.5 °F 90% 30.11 in 10.0 mi Calm Calm - N/A   Clear
1:35 AM 49.6 °F 48.9 °F 97% 30.10 in 10.0 mi Calm Calm - N/A   Clear
1:55 AM 48.9 °F 47.8 °F 96% 30.10 in 10.0 mi Calm Calm - N/A   Clear
2:15 AM 48.6 °F 47.5 °F 96% 30.10 in 10.0 mi Calm Calm - N/A   Clear
2:35 AM 48.0 °F 47.3 °F 97% 30.10 in 10.0 mi Calm Calm - N/A   Clear
2:55 AM 48.2 °F 47.8 °F 99% 30.11 in 10.0 mi Calm Calm - N/A   Clear
3:15 AM 47.7 °F 47.5 °F 99% 30.11 in 10.0 mi Calm Calm - N/A   Clear
3:35 AM 47.5 °F 47.1 °F 99% 30.12 in 10.0 mi Calm Calm - N/A   Clear
3:55 AM 46.8 °F 46.4 °F 99% 30.12 in 10.0 mi Calm Calm - N/A   Clear
4:15 AM 48.0 °F 47.1 °F 97% 30.12 in 10.0 mi Calm Calm - N/A   Clear
4:35 AM 46.4 °F 46.2 °F 99% 30.13 in 10.0 mi Calm Calm - N/A   Clear
4:55 AM 47.5 °F 47.3 °F 99% 30.13 in 10.0 mi Calm Calm - N/A   Clear
5:15 AM 48.2 °F 45.7 °F 91% 30.13 in 10.0 mi Calm Calm - N/A   Clear
5:35 AM 48.0 °F 46.2 °F 93% 30.14 in 10.0 mi Calm Calm - N/A   Clear
5:55 AM 46.4 °F 45.9 °F 98% 30.14 in 10.0 mi Calm Calm - N/A   Clear
6:15 AM 47.1 °F 46.4 °F 97% 30.15 in 10.0 mi Calm Calm - N/A   Clear
6:35 AM 47.1 °F 46.2 °F 97% 30.15 in 10.0 mi Calm Calm - N/A   Clear
6:55 AM 47.5 °F 46.9 °F 98% 30.15 in 10.0 mi Calm Calm - N/A   Clear
7:15 AM 49.6 °F 48.7 °F 97% 30.17 in 10.0 mi Calm Calm - N/A   Clear
7:35 AM 51.8 °F 50.4 °F 95% 30.16 in 10.0 mi SE 3.5 mph - N/A   Clear
7:55 AM 53.8 °F 50.7 °F 89% 30.16 in 10.0 mi SE 4.6 mph - N/A   Clear
8:15 AM 55.8 °F 49.8 °F 80% 30.16 in 10.0 mi SSE 4.6 mph - N/A   Clear
8:30 AM 57.9 °F 48.6 °F 71% 30.17 in 10.0 mi SSE 4.6 mph - N/A   Clear
8:55 AM 61.2 °F 47.8 °F 62% 30.17 in 10.0 mi South 5.8 mph - N/A   Clear
9:15 AM 63.0 °F 48.0 °F 58% 30.17 in 10.0 mi South 8.1 mph - N/A   Clear
9:35 AM 64.9 °F 47.8 °F 54% 30.17 in 10.0 mi South 8.1 mph - N/A   Clear
9:55 AM 66.0 °F 46.9 °F 50% 30.17 in 10.0 mi South 8.1 mph - N/A   Clear
10:15 AM 67.3 °F 47.3 °F 49% 30.17 in 10.0 mi South 9.2 mph - N/A   Clear
10:35 AM 68.7 °F 47.3 °F 46% 30.17 in 10.0 mi South 9.2 mph - N/A   Clear
10:55 AM 69.8 °F 47.3 °F 45% 30.16 in 10.0 mi South 9.2 mph - N/A   Clear
11:15 AM 70.9 °F 45.7 °F 40% 30.15 in 10.0 mi South 8.1 mph - N/A   Clear
11:35 AM 71.8 °F 44.6 °F 38% 30.15 in 10.0 mi South 5.8 mph - N/A   Clear
11:55 AM 72.5 °F 44.2 °F 36% 30.15 in 10.0 mi South 8.1 mph 16.1 mph N/A   Clear
12:15 PM 73.2 °F 45.3 °F 37% 30.15 in 10.0 mi South 9.2 mph 17.3 mph N/A   Clear
12:35 PM 73.4 °F 45.0 °F 36% 30.15 in 10.0 mi SW 5.8 mph - N/A   Clear
12:55 PM 74.5 °F 46.4 °F 37% 30.14 in 10.0 mi SSW 8.1 mph - N/A   Clear
1:15 PM 75.0 °F 45.5 °F 35% 30.13 in 10.0 mi SSW 10.4 mph 17.3 mph N/A   Clear
1:35 PM 75.7 °F 44.8 °F 33% 30.12 in 10.0 mi SSW 11.5 mph 19.6 mph N/A   Clear
1:55 PM 76.3 °F 46.0 °F 34% 30.11 in 10.0 mi SSW 11.5 mph - N/A   Clear
2:15 PM 75.9 °F 45.7 °F 34% 30.10 in 10.0 mi South 9.2 mph - N/A   Clear
2:35 PM 76.6 °F 46.9 °F 35% 30.09 in 10.0 mi SSW 12.7 mph 18.4 mph N/A   Clear
2:55 PM 76.8 °F 46.9 °F 35% 30.08 in 10.0 mi South 12.7 mph 16.1 mph N/A   Clear
3:15 PM 75.0 °F 45.3 °F 35% 30.07 in 10.0 mi South 11.5 mph 18.4 mph N/A   Clear
3:35 PM 76.3 °F 46.9 °F 35% 30.06 in 10.0 mi South 10.4 mph - N/A   Clear
3:55 PM 76.1 °F 45.7 °F 34% 30.06 in 10.0 mi South 12.7 mph 18.4 mph N/A   Clear
4:15 PM 75.7 °F 45.3 °F 34% 30.05 in 10.0 mi South 12.7 mph 18.4 mph N/A   Clear
4:35 PM 77.2 °F 47.3 °F 35% 30.04 in 10.0 mi South 13.8 mph 17.3 mph N/A   Clear
4:55 PM 77.9 °F 45.9 °F 32% 30.03 in 10.0 mi South 11.5 mph - N/A   Clear
5:15 PM 77.5 °F 46.6 °F 33% 30.03 in 10.0 mi SSW 16.1 mph 19.6 mph N/A   Clear
5:35 PM 77.0 °F 45.7 °F 33% 30.02 in 10.0 mi SSW 9.2 mph - N/A   Clear
5:55 PM 76.1 °F 46.6 °F 35% 30.01 in 10.0 mi South 9.2 mph - N/A   Clear
6:15 PM 75.4 °F 46.9 °F 36% 30.01 in 10.0 mi South 12.7 mph - N/A   Clear
6:35 PM 76.6 °F 46.4 °F 34% 30.01 in 10.0 mi SSW 13.8 mph 18.4 mph N/A   Clear
6:55 PM 74.8 °F 45.7 °F 35% 30.01 in 10.0 mi SSW 10.4 mph 16.1 mph N/A   Clear
7:15 PM 73.9 °F 47.1 °F 38% 30.01 in 10.0 mi South 6.9 mph 11.5 mph N/A   Clear
7:35 PM 73.4 °F 45.9 °F 37% 30.01 in 10.0 mi South 9.2 mph - N/A   Scattered Clouds
7:55 PM 72.5 °F 46.6 °F 40% 30.00 in 10.0 mi South 5.8 mph - N/A   Scattered Clouds
8:15 PM 72.0 °F 47.7 °F 42% 30.02 in 10.0 mi SSW 3.5 mph - N/A   Clear
8:35 PM 71.4 °F 48.6 °F 44% 30.02 in 10.0 mi SSW 3.5 mph - N/A   Mostly Cloudy
8:55 PM 69.8 °F 50.9 °F 51% 30.03 in 10.0 mi SSW 4.6 mph - N/A Rain Light Rain
9:15 PM 69.4 °F 51.1 °F 52% 30.02 in 10.0 mi South 3.5 mph - N/A   Overcast
9:35 PM 69.1 °F 50.9 °F 52% 30.01 in 10.0 mi South 5.8 mph - N/A   Overcast
9:55 PM 66.9 °F 54.5 °F 64% 29.99 in 10.0 mi SSE 6.9 mph - N/A Rain Light Rain
10:15 PM 65.8 °F 55.8 °F 70% 30.00 in 10.0 mi South 4.6 mph - N/A   Overcast
10:35 PM 66.0 °F 55.0 °F 68% 30.00 in 10.0 mi South 4.6 mph - N/A   Mostly Cloudy